• In Österreich
  • Länderverzeichnis
  • Für 7 Tage
  • Wassertemperatur
  • Satellitenkarten
  • Wetterkarte
  • News
  • Widgets
  • user-avatar
    Anmelden

    Stündliche Wetter Jewłach

    Heute, 16 August, Donnerstag

    Zeit Temperatur Niederschläge Wind Luftdruck Luftfeuchtigkeit
    00:00 +26°C° 0 mm 3 m/S 761 mmHg 55%
    01:00 +26°C° 0 mm 2 m/S 761 mmHg 57%
    02:00 +25°C° 0 mm 2 m/S 761 mmHg 59%
    03:00 +25°C° 0 mm 3 m/S 761 mmHg 63%
    04:00 +25°C° 0 mm 2 m/S 761 mmHg 63%
    05:00 +25°C° 0 mm 2 m/S 761 mmHg 63%
    06:00 +25°C° 0 mm 2 m/S 761 mmHg 63%
    07:00 +27°C° 0 mm 2 m/S 761 mmHg 57%
    08:00 +29°C° 0 mm 2 m/S 760 mmHg 51%
    09:00 +31°C° 0 mm 2 m/S 760 mmHg 43%
    10:00 +33°C° 0 mm 3 m/S 760 mmHg 40%
    11:00 +34°C° 0 mm 3 m/S 759 mmHg 37%
    12:00 +35°C° 0 mm 3 m/S 759 mmHg 34%
    13:00 +36°C° 0 mm 3 m/S 759 mmHg 32%
    14:00 +37°C° 0 mm 3 m/S 758 mmHg 31%
    15:00 +36°C° 0 mm 3 m/S 758 mmHg 32%
    16:00 +36°C° 0 mm 3 m/S 758 mmHg 33%
    17:00 +36°C° 0 mm 3 m/S 758 mmHg 34%
    18:00 +35°C° 0 mm 3 m/S 758 mmHg 35%
    19:00 +34°C° 0 mm 3 m/S 758 mmHg 38%
    20:00 +31°C° 0 mm 3 m/S 759 mmHg 41%
    21:00 +30°C° 0 mm 3 m/S 759 mmHg 44%
    22:00 +29°C° 0 mm 2 m/S 759 mmHg 45%
    23:00 +29°C° 0 mm 2 m/S 759 mmHg 46%

    Morgen, 17 August, Freitag

    Zeit Temperatur Niederschläge Wind Luftdruck Luftfeuchtigkeit
    00:00 +28°C° 0 mm 2 m/S 759 mmHg 48%
    01:00 +27°C° 0 mm 2 m/S 759 mmHg 49%
    02:00 +27°C° 0 mm 1 m/S 758 mmHg 50%
    03:00 +26°C° 0 mm 1 m/S 758 mmHg 51%
    04:00 +27°C° 0 mm 1 m/S 758 mmHg 51%
    05:00 +27°C° 0 mm 1 m/S 758 mmHg 51%
    06:00 +27°C° 0 mm 1 m/S 758 mmHg 50%
    07:00 +29°C° 0 mm 1 m/S 758 mmHg 46%
    08:00 +31°C° 0 mm 2 m/S 758 mmHg 42%
    09:00 +32°C° 0 mm 2 m/S 757 mmHg 37%
    10:00 +34°C° 0 mm 2 m/S 757 mmHg 35%
    11:00 +36°C° 0 mm 2 m/S 756 mmHg 32%
    12:00 +37°C° 0 mm 2 m/S 756 mmHg 29%
    13:00 +38°C° 0 mm 2 m/S 755 mmHg 28%
    14:00 +38°C° 0 mm 2 m/S 755 mmHg 26%
    15:00 +39°C° 0 mm 3 m/S 754 mmHg 25%
    16:00 +39°C° 0 mm 3 m/S 754 mmHg 26%
    17:00 +38°C° 0 mm 3 m/S 754 mmHg 27%
    18:00 +38°C° 0 mm 2 m/S 754 mmHg 28%
    19:00 +36°C° 0 mm 3 m/S 755 mmHg 31%
    20:00 +34°C° 0 mm 3 m/S 755 mmHg 35%
    21:00 +32°C° 0 mm 4 m/S 755 mmHg 38%
    22:00 +31°C° 0 mm 3 m/S 755 mmHg 41%
    23:00 +30°C° 0 mm 3 m/S 755 mmHg 44%

    übermorgen, 18 August, Samstag

    Zeit Temperatur Niederschläge Wind Luftdruck Luftfeuchtigkeit
    00:00 +29°C° 0 mm 2 m/S 755 mmHg 46%
    01:00 +28°C° 0 mm 2 m/S 755 mmHg 48%
    02:00 +28°C° 0 mm 2 m/S 755 mmHg 49%
    03:00 +27°C° 0 mm 1 m/S 755 mmHg 50%
    04:00 +28°C° 0 mm 1 m/S 755 mmHg 50%
    05:00 +28°C° 0 mm 1 m/S 755 mmHg 50%
    06:00 +28°C° 0 mm 1 m/S 755 mmHg 50%
    07:00 +30°C° 0 mm 1 m/S 755 mmHg 45%
    08:00 +31°C° 0 mm 1 m/S 755 mmHg 40%
    09:00 +34°C° 0 mm 2 m/S 755 mmHg 35%
    10:00 +35°C° 0 mm 2 m/S 754 mmHg 32%
    11:00 +37°C° 0 mm 2 m/S 754 mmHg 30%
    12:00 +38°C° 0 mm 2 m/S 754 mmHg 27%
    13:00 +39°C° 0 mm 3 m/S 753 mmHg 25%
    14:00 +40°C° 0 mm 3 m/S 753 mmHg 24%
    15:00 +40°C° 0 mm 3 m/S 752 mmHg 22%
    16:00 +41°C° 0 mm 4 m/S 753 mmHg 23%
    17:00 +40°C° 0 mm 4 m/S 753 mmHg 25%
    18:00 +38°C° 0 mm 4 m/S 753 mmHg 26%
    19:00 +36°C° 0 mm 4 m/S 753 mmHg 30%
    20:00 +35°C° 0 mm 4 m/S 754 mmHg 34%
    21:00 +33°C° 0 mm 4 m/S 755 mmHg 38%
    22:00 +32°C° 0 mm 4 m/S 755 mmHg 40%
    23:00 +31°C° 0 mm 3 m/S 755 mmHg 42%

    19 August, Sonntag

    Zeit Temperatur Niederschläge Wind Luftdruck Luftfeuchtigkeit
    00:00 +30°C° 0 mm 3 m/S 755 mmHg 44%
    01:00 +29°C° 0 mm 3 m/S 755 mmHg 45%
    02:00 +29°C° 0 mm 2 m/S 755 mmHg 46%
    03:00 +28°C° 0 mm 2 m/S 755 mmHg 48%
    04:00 +28°C° 0,1 mm 2 m/S 755 mmHg 48%
    05:00 +28°C° 0,1 mm 2 m/S 756 mmHg 48%
    06:00 +28°C° 0,1 mm 1 m/S 756 mmHg 48%
    07:00 +30°C° 0,1 mm 1 m/S 756 mmHg 43%
    08:00 +32°C° 0,1 mm 2 m/S 756 mmHg 38%
    09:00 +35°C° 0,1 mm 2 m/S 756 mmHg 33%
    10:00 +36°C° 0 mm 2 m/S 755 mmHg 30%
    11:00 +37°C° 0 mm 3 m/S 755 mmHg 27%
    12:00 +39°C° 0 mm 3 m/S 755 mmHg 24%
    13:00 +40°C° 0 mm 4 m/S 755 mmHg 23%
    14:00 +40°C° 0 mm 5 m/S 755 mmHg 22%
    15:00 +41°C° 0 mm 5 m/S 754 mmHg 22%
    16:00 +40°C° 0 mm 6 m/S 755 mmHg 23%
    17:00 +39°C° 0 mm 6 m/S 755 mmHg 24%
    18:00 +38°C° 0 mm 7 m/S 755 mmHg 26%
    19:00 +34°C° 0,3 mm 7 m/S 756 mmHg 32%
    20:00 +32°C° 0,3 mm 7 m/S 756 mmHg 38%
    21:00 +29°C° 0,3 mm 7 m/S 757 mmHg 45%
    22:00 +28°C° 0,1 mm 6 m/S 757 mmHg 47%
    23:00 +27°C° 0,1 mm 5 m/S 758 mmHg 50%

    20 August, Montag

    Zeit Temperatur Niederschläge Wind Luftdruck Luftfeuchtigkeit
    00:00 +27°C° 0,1 mm 4 m/S 758 mmHg 52%
    01:00 +26°C° 0 mm 4 m/S 758 mmHg 54%
    02:00 +26°C° 0 mm 4 m/S 758 mmHg 55%
    03:00 +25°C° 0 mm 3 m/S 758 mmHg 56%
    04:00 +25°C° 0 mm 4 m/S 758 mmHg 57%
    05:00 +25°C° 0 mm 4 m/S 759 mmHg 57%
    06:00 +25°C° 0 mm 4 m/S 759 mmHg 57%
    07:00 +26°C° 0 mm 4 m/S 759 mmHg 53%
    08:00 +28°C° 0 mm 5 m/S 759 mmHg 49%
    09:00 +29°C° 0 mm 5 m/S 759 mmHg 45%
    10:00 +30°C° 0 mm 5 m/S 759 mmHg 42%
    11:00 +32°C° 0 mm 5 m/S 759 mmHg 38%
    12:00 +34°C° 0 mm 5 m/S 758 mmHg 34%
    13:00 +34°C° 0 mm 5 m/S 758 mmHg 33%
    14:00 +35°C° 0 mm 5 m/S 758 mmHg 31%
    15:00 +35°C° 0 mm 5 m/S 758 mmHg 30%
    16:00 +35°C° 0 mm 5 m/S 758 mmHg 31%
    17:00 +34°C° 0 mm 5 m/S 758 mmHg 32%
    18:00 +33°C° 0 mm 6 m/S 758 mmHg 33%
    19:00 +30°C° 0 mm 5 m/S 759 mmHg 36%
    20:00 +29°C° 0 mm 5 m/S 760 mmHg 40%
    21:00 +27°C° 0 mm 5 m/S 760 mmHg 44%
    22:00 +26°C° 0 mm 4 m/S 760 mmHg 47%
    23:00 +26°C° 0 mm 4 m/S 760 mmHg 50%

    21 August, Dienstag

    Zeit Temperatur Niederschläge Wind Luftdruck Luftfeuchtigkeit
    00:00 +25°C° 0 mm 3 m/S 760 mmHg 53%
    01:00 +24°C° 0 mm 2 m/S 760 mmHg 55%
    02:00 +24°C° 0 mm 2 m/S 760 mmHg 57%
    03:00 +23°C° 0 mm 2 m/S 760 mmHg 59%
    04:00 +24°C° 0 mm 1 m/S 760 mmHg 59%
    05:00 +24°C° 0 mm 1 m/S 761 mmHg 59%
    06:00 +24°C° 0 mm 1 m/S 761 mmHg 59%
    07:00 +25°C° 0 mm 1 m/S 761 mmHg 53%
    08:00 +27°C° 0 mm 2 m/S 761 mmHg 47%
    09:00 +29°C° 0 mm 2 m/S 761 mmHg 40%
    10:00 +30°C° 0 mm 3 m/S 760 mmHg 37%
    11:00 +31°C° 0 mm 3 m/S 760 mmHg 34%
    12:00 +34°C° 0 mm 3 m/S 760 mmHg 31%
    13:00 +34°C° 0 mm 4 m/S 759 mmHg 30%
    14:00 +35°C° 0 mm 4 m/S 759 mmHg 28%
    15:00 +36°C° 0 mm 4 m/S 759 mmHg 27%
    16:00 +35°C° 0 mm 5 m/S 759 mmHg 27%
    17:00 +35°C° 0 mm 5 m/S 760 mmHg 27%
    18:00 +34°C° 0 mm 5 m/S 760 mmHg 28%
    19:00 +32°C° 0 mm 5 m/S 761 mmHg 30%
    20:00 +29°C° 0 mm 5 m/S 761 mmHg 32%
    21:00 +28°C° 0 mm 5 m/S 762 mmHg 35%
    22:00 +27°C° 0 mm 4 m/S 762 mmHg 36%
    23:00 +26°C° 0 mm 4 m/S 762 mmHg 37%
    Mehr zeigen